Time,TemperatureF,DewpointF,PressureIn,WindDirection,WindDirectionDegrees,WindSpeedMPH,WindSpeedGustMPH,Humidity,HourlyPrecipIn,Conditions,Clouds,dailyrainin,SoftwareType,DateUTC
2013-08-10 00:02:00,73.0,71.0,30.20,SSE,153,0.0,0.0,95,0.00,,,0.00,,2013-08-10 04:02:00,
2013-08-10 00:12:00,72.0,71.0,30.19,SSE,153,0.0,0.0,96,0.00,,,0.00,,2013-08-10 04:12:00,
2013-08-10 00:22:00,72.0,71.0,30.19,SSE,153,0.0,0.0,96,0.00,,,0.00,,2013-08-10 04:22:00,
2013-08-10 00:32:00,72.0,71.0,30.19,SSE,153,0.0,0.0,96,0.00,,,0.00,,2013-08-10 04:32:00,
2013-08-10 00:43:00,72.0,71.0,30.18,SSE,153,0.0,0.0,96,0.00,,,0.00,,2013-08-10 04:43:00,
2013-08-10 00:53:00,72.0,71.0,30.18,SSE,153,0.0,0.0,96,0.00,,,0.00,,2013-08-10 04:53:00,
2013-08-10 01:02:00,72.0,71.0,30.18,SSE,153,0.0,0.0,96,0.00,,,0.00,,2013-08-10 05:02:00,
2013-08-10 01:43:00,72.0,71.0,30.18,SSE,153,0.0,0.0,97,0.00,,,0.00,,2013-08-10 05:43:00,
2013-08-10 01:52:00,72.0,71.0,30.18,SSE,152,0.0,0.0,97,0.00,,,0.00,,2013-08-10 05:52:00,
2013-08-10 02:11:00,71.0,70.0,30.18,SSE,153,0.0,0.0,97,0.00,,,0.00,,2013-08-10 06:11:00,
2013-08-10 02:22:00,71.0,70.0,30.18,SSE,152,0.0,0.0,97,0.00,,,0.00,,2013-08-10 06:22:00,
2013-08-10 02:32:00,71.0,70.0,30.18,SSE,152,0.0,0.0,97,0.00,,,0.00,,2013-08-10 06:32:00,
2013-08-10 02:44:00,71.0,70.0,30.18,SSE,152,0.0,0.0,97,0.01,,,0.01,,2013-08-10 06:44:00,
2013-08-10 02:53:00,71.0,70.0,30.18,SSE,153,0.0,0.0,97,0.01,,,0.01,,2013-08-10 06:53:00,
2013-08-10 03:02:00,71.0,70.0,30.18,SSE,153,0.0,0.0,97,0.01,,,0.01,,2013-08-10 07:02:00,
2013-08-10 03:12:00,71.0,70.0,30.17,SSE,153,0.0,0.0,97,0.01,,,0.01,,2013-08-10 07:12:00,
2013-08-10 03:22:00,71.0,70.0,30.17,SSE,153,0.0,0.0,97,0.01,,,0.01,,2013-08-10 07:22:00,
2013-08-10 03:33:00,71.0,70.0,30.17,SSE,152,0.0,0.0,97,0.01,,,0.01,,2013-08-10 07:33:00,
2013-08-10 03:43:00,71.0,70.0,30.17,SSE,153,0.0,0.0,97,0.00,,,0.01,,2013-08-10 07:43:00,
2013-08-10 03:52:00,71.0,70.0,30.17,SSE,153,0.0,0.0,97,0.00,,,0.01,,2013-08-10 07:52:00,
2013-08-10 04:01:00,71.0,70.0,30.17,SSE,153,0.0,0.0,97,0.00,,,0.01,,2013-08-10 08:01:00,
2013-08-10 04:12:00,71.0,70.0,30.17,SSE,152,0.0,0.0,97,0.00,,,0.01,,2013-08-10 08:12:00,
2013-08-10 04:32:00,70.0,69.0,30.18,SSE,152,0.0,0.0,97,0.00,,,0.01,,2013-08-10 08:32:00,
2013-08-10 04:43:00,70.0,69.0,30.18,SSE,153,0.0,0.0,97,0.00,,,0.01,,2013-08-10 08:43:00,
2013-08-10 04:53:00,70.0,69.0,30.18,SSE,152,0.0,0.0,97,0.00,,,0.01,,2013-08-10 08:53:00,
2013-08-10 05:02:00,70.0,69.0,30.17,SSE,153,0.0,0.0,97,0.00,,,0.01,,2013-08-10 09:02:00,
2013-08-10 05:12:00,70.0,69.0,30.17,SSE,153,0.0,0.0,97,0.00,,,0.01,,2013-08-10 09:12:00,
2013-08-10 05:22:00,70.0,69.0,30.17,SSE,153,0.0,0.0,97,0.00,,,0.01,,2013-08-10 09:22:00,
2013-08-10 05:43:00,69.0,68.0,30.17,SSE,153,0.0,0.0,97,0.00,,,0.01,,2013-08-10 09:43:00,
2013-08-10 05:52:00,69.0,68.0,30.18,SSE,153,0.0,0.0,97,0.00,,,0.01,,2013-08-10 09:52:00,
2013-08-10 06:02:00,69.0,68.0,30.18,SSE,153,0.0,0.0,97,0.00,,,0.01,,2013-08-10 10:02:00,
2013-08-10 06:11:00,69.0,68.0,30.18,SSE,153,0.0,0.0,97,0.00,,,0.01,,2013-08-10 10:11:00,
2013-08-10 06:44:00,69.0,68.0,30.19,SSE,153,0.0,0.0,97,0.00,,,0.01,,2013-08-10 10:44:00,
2013-08-10 06:52:00,69.0,68.0,30.19,SSE,153,0.0,0.0,97,0.00,,,0.01,,2013-08-10 10:52:00,
2013-08-10 07:02:00,69.0,68.0,30.20,SSE,152,0.0,0.0,98,0.00,,,0.01,,2013-08-10 11:02:00,
2013-08-10 07:11:00,69.0,68.0,30.20,SSE,153,0.0,0.0,98,0.00,,,0.01,,2013-08-10 11:11:00,
2013-08-10 07:22:00,68.0,67.0,30.20,SSE,153,0.0,0.0,97,0.00,,,0.01,,2013-08-10 11:22:00,
2013-08-10 07:33:00,68.0,67.0,30.21,SSE,152,0.0,0.0,98,0.00,,,0.01,,2013-08-10 11:33:00,
2013-08-10 07:43:00,68.0,67.0,30.21,SSE,153,0.0,0.0,98,0.00,,,0.01,,2013-08-10 11:43:00,
2013-08-10 07:53:00,68.0,67.0,30.21,SSE,152,0.0,0.0,98,0.00,,,0.01,,2013-08-10 11:53:00,
2013-08-10 08:11:00,68.0,67.0,30.22,SSE,152,0.0,0.0,98,0.00,,,0.01,,2013-08-10 12:11:00,
2013-08-10 08:22:00,68.0,67.0,30.22,SSE,153,0.0,0.0,98,0.00,,,0.01,,2013-08-10 12:22:00,
2013-08-10 08:32:00,68.0,67.0,30.22,SSE,153,0.0,0.0,98,0.00,,,0.01,,2013-08-10 12:32:00,
2013-08-10 08:42:00,69.0,69.0,30.22,SSE,153,0.0,0.0,99,0.00,,,0.01,,2013-08-10 12:42:00,
2013-08-10 08:52:00,69.0,69.0,30.22,SSE,152,0.0,0.0,99,0.00,,,0.01,,2013-08-10 12:52:00,
2013-08-10 09:01:00,69.0,69.0,30.22,SSE,152,0.0,0.0,99,0.00,,,0.01,,2013-08-10 13:01:00,
2013-08-10 09:43:00,73.0,73.0,30.22,SSE,153,0.0,0.0,100,0.00,,,0.01,,2013-08-10 13:43:00,
2013-08-10 09:52:00,73.0,73.0,30.22,SSE,153,0.0,0.0,100,0.00,,,0.01,,2013-08-10 13:52:00,
2013-08-10 10:02:00,74.0,74.0,30.22,SSE,153,0.0,0.0,100,0.00,,,0.01,,2013-08-10 14:02:00,
2013-08-10 10:12:00,74.0,74.0,30.21,SSE,153,0.0,0.0,100,0.00,,,0.01,,2013-08-10 14:12:00,
2013-08-10 10:22:00,75.0,75.0,30.21,SSE,153,0.0,1.0,100,0.00,,,0.01,,2013-08-10 14:22:00,
2013-08-10 10:33:00,75.0,75.0,30.22,SSE,153,0.0,1.0,100,0.00,,,0.01,,2013-08-10 14:33:00,
2013-08-10 10:43:00,75.0,75.0,30.22,SSE,153,0.0,1.0,100,0.00,,,0.01,,2013-08-10 14:43:00,
2013-08-10 10:53:00,76.0,76.0,30.21,East,92,0.0,3.0,100,0.00,,,0.01,,2013-08-10 14:53:00,
2013-08-10 11:02:00,76.0,75.0,30.22,East,91,0.0,0.0,98,0.00,,,0.01,,2013-08-10 15:02:00,
2013-08-10 11:12:00,76.0,75.0,30.22,East,92,0.0,0.0,98,0.00,,,0.01,,2013-08-10 15:12:00,
2013-08-10 11:22:00,77.0,76.0,30.22,East,92,0.0,0.0,98,0.00,,,0.01,,2013-08-10 15:22:00,
2013-08-10 11:34:00,77.0,76.0,30.22,East,91,0.0,1.0,96,0.00,,,0.01,,2013-08-10 15:34:00,
2013-08-10 11:43:00,78.0,75.0,30.22,West,259,0.0,1.0,92,0.00,,,0.01,,2013-08-10 15:43:00,
2013-08-10 11:52:00,78.0,75.0,30.22,West,259,0.0,1.0,90,0.00,,,0.01,,2013-08-10 15:52:00,
2013-08-10 12:01:00,79.0,75.0,30.22,West,259,0.0,1.0,89,0.00,,,0.01,,2013-08-10 16:01:00,
2013-08-10 12:11:00,79.0,75.0,30.22,West,259,0.0,1.0,89,0.00,,,0.01,,2013-08-10 16:11:00,
2013-08-10 12:22:00,80.0,75.0,30.22,West,259,0.0,1.0,86,0.00,,,0.01,,2013-08-10 16:22:00,
2013-08-10 12:32:00,81.0,76.0,30.21,West,259,0.0,3.0,86,0.00,,,0.01,,2013-08-10 16:32:00,
2013-08-10 12:43:00,81.0,75.0,30.21,West,259,0.0,2.0,83,0.00,,,0.01,,2013-08-10 16:43:00,
2013-08-10 12:53:00,81.0,75.0,30.22,WSW,252,0.0,3.0,82,0.00,,,0.01,,2013-08-10 16:53:00,
2013-08-10 13:02:00,80.0,74.0,30.21,WNW,296,0.0,3.0,81,0.00,,,0.01,,2013-08-10 17:02:00,
2013-08-10 13:12:00,81.0,75.0,30.21,WNW,295,0.0,1.0,81,0.00,,,0.01,,2013-08-10 17:12:00,
2013-08-10 13:22:00,84.0,75.0,30.21,WSW,257,0.0,3.0,75,0.00,,,0.01,,2013-08-10 17:22:00,
2013-08-10 13:33:00,85.0,77.0,30.19,WSW,252,0.0,2.0,76,0.00,,,0.01,,2013-08-10 17:33:00,
2013-08-10 13:43:00,86.0,75.0,30.19,WSW,257,0.0,2.0,71,0.00,,,0.01,,2013-08-10 17:43:00,
2013-08-10 14:44:00,89.0,76.0,30.17,SSW,211,0.0,0.0,65,0.00,,,0.01,,2013-08-10 18:44:00,
2013-08-10 14:52:00,88.0,76.0,30.17,SSW,211,0.0,1.0,67,0.00,,,0.01,,2013-08-10 18:52:00,
2013-08-10 15:02:00,88.0,77.0,30.16,NW,315,0.0,2.0,70,0.00,,,0.01,,2013-08-10 19:02:00,
2013-08-10 15:11:00,88.0,76.0,30.16,SSW,201,0.0,1.0,68,0.00,,,0.01,,2013-08-10 19:11:00,
2013-08-10 15:22:00,87.0,76.0,30.16,SW,232,0.0,2.0,69,0.00,,,0.01,,2013-08-10 19:22:00,
2013-08-10 15:33:00,86.0,74.0,30.17,WSW,244,0.0,3.0,68,0.00,,,0.01,,2013-08-10 19:33:00,
2013-08-10 15:44:00,87.0,76.0,30.16,WSW,244,0.0,2.0,69,0.00,,,0.01,,2013-08-10 19:44:00,
2013-08-10 15:53:00,86.0,76.0,30.15,WSW,244,0.0,0.0,72,0.00,,,0.01,,2013-08-10 19:53:00,
2013-08-10 16:02:00,86.0,75.0,30.15,WSW,240,0.0,1.0,71,0.00,,,0.01,,2013-08-10 20:02:00,
2013-08-10 16:12:00,85.0,75.0,30.15,WSW,240,0.0,2.0,73,0.00,,,0.01,,2013-08-10 20:12:00,
2013-08-10 16:22:00,86.0,75.0,30.15,WSW,242,0.0,3.0,70,0.00,,,0.01,,2013-08-10 20:22:00,
2013-08-10 16:33:00,86.0,75.0,30.15,WSW,242,0.0,3.0,70,0.00,,,0.01,,2013-08-10 20:33:00,
2013-08-10 16:43:00,85.0,75.0,30.15,WSW,242,0.0,1.0,72,0.00,,,0.01,,2013-08-10 20:43:00,
2013-08-10 16:53:00,85.0,75.0,30.14,WSW,246,0.0,1.0,73,0.00,,,0.01,,2013-08-10 20:53:00,
2013-08-10 17:02:00,85.0,75.0,30.14,WSW,244,0.0,2.0,73,0.00,,,0.01,,2013-08-10 21:02:00,
2013-08-10 17:12:00,85.0,75.0,30.14,WSW,244,0.0,1.0,73,0.00,,,0.01,,2013-08-10 21:12:00,
2013-08-10 17:22:00,84.0,76.0,30.14,WSW,244,0.0,2.0,76,0.00,,,0.01,,2013-08-10 21:22:00,
2013-08-10 17:32:00,84.0,76.0,30.14,WSW,244,0.0,1.0,77,0.00,,,0.01,,2013-08-10 21:32:00,
2013-08-10 17:42:00,84.0,76.0,30.16,WSW,244,0.0,2.0,76,0.00,,,0.01,,2013-08-10 21:42:00,
2013-08-10 17:52:00,83.0,74.0,30.17,SSE,167,0.0,2.0,75,0.00,,,0.01,,2013-08-10 21:52:00,
2013-08-10 18:01:00,81.0,73.0,30.17,SSE,153,1.0,6.0,76,0.00,,,0.01,,2013-08-10 22:01:00,
2013-08-10 18:11:00,78.0,71.0,30.19,SSE,166,0.0,6.0,79,0.00,,,0.01,,2013-08-10 22:11:00,
2013-08-10 18:21:00,77.0,71.0,30.19,SSE,147,0.0,1.0,82,0.00,,,0.01,,2013-08-10 22:21:00,
2013-08-10 18:32:00,77.0,72.0,30.19,SSE,147,0.0,0.0,84,0.00,,,0.01,,2013-08-10 22:32:00,
2013-08-10 18:43:00,76.0,72.0,30.20,SSE,163,0.0,0.0,87,0.04,,,0.05,,2013-08-10 22:43:00,
2013-08-10 18:52:00,76.0,72.0,30.20,SSE,163,0.0,0.0,87,0.04,,,0.05,,2013-08-10 22:52:00,
2013-08-10 19:01:00,74.0,71.0,30.22,SW,234,0.0,1.0,91,0.14,,,0.15,,2013-08-10 23:01:00,
2013-08-10 19:12:00,74.0,72.0,30.20,SE,127,0.0,1.0,94,0.15,,,0.16,,2013-08-10 23:12:00,
2013-08-10 19:22:00,74.0,72.0,30.20,SE,127,0.0,0.0,94,0.15,,,0.16,,2013-08-10 23:22:00,
2013-08-10 19:32:00,74.0,72.0,30.21,SE,127,0.0,0.0,95,0.15,,,0.16,,2013-08-10 23:32:00,
2013-08-10 19:43:00,74.0,73.0,30.20,SE,127,0.0,0.0,96,0.11,,,0.16,,2013-08-10 23:43:00,
2013-08-10 19:53:00,74.0,72.0,30.21,SE,127,0.0,0.0,95,0.03,,,0.16,,2013-08-10 23:53:00,
2013-08-10 20:02:00,74.0,73.0,30.22,SE,127,0.0,0.0,96,0.01,,,0.16,,2013-08-11 00:02:00,
2013-08-10 20:11:00,74.0,73.0,30.22,SE,126,0.0,0.0,96,0.00,,,0.16,,2013-08-11 00:11:00,
2013-08-10 20:22:00,74.0,72.0,30.22,SE,127,0.0,0.0,95,0.00,,,0.16,,2013-08-11 00:22:00,
2013-08-10 20:32:00,73.0,72.0,30.22,SE,127,0.0,0.0,96,0.00,,,0.16,,2013-08-11 00:32:00,
2013-08-10 20:42:00,73.0,72.0,30.22,SE,127,0.0,0.0,96,0.00,,,0.16,,2013-08-11 00:42:00,
2013-08-10 20:52:00,73.0,72.0,30.22,SE,127,0.0,0.0,96,0.00,,,0.16,,2013-08-11 00:52:00,
2013-08-10 21:01:00,73.0,72.0,30.23,SE,127,0.0,0.0,96,0.00,,,0.16,,2013-08-11 01:01:00,
2013-08-10 21:11:00,72.0,71.0,30.23,SE,126,0.0,0.0,96,0.00,,,0.16,,2013-08-11 01:11:00,
2013-08-10 21:22:00,72.0,71.0,30.22,SE,127,0.0,0.0,97,0.00,,,0.16,,2013-08-11 01:22:00,
2013-08-10 21:32:00,72.0,71.0,30.22,SE,126,0.0,0.0,97,0.00,,,0.16,,2013-08-11 01:32:00,
2013-08-10 21:43:00,72.0,71.0,30.22,SE,127,0.0,0.0,97,0.00,,,0.16,,2013-08-11 01:43:00,
2013-08-10 21:53:00,72.0,71.0,30.22,SE,126,0.0,0.0,97,0.00,,,0.16,,2013-08-11 01:53:00,
2013-08-10 22:02:00,72.0,71.0,30.22,SE,127,0.0,0.0,97,0.00,,,0.16,,2013-08-11 02:02:00,
2013-08-10 22:11:00,71.0,70.0,30.22,SE,126,0.0,0.0,97,0.00,,,0.16,,2013-08-11 02:11:00,
2013-08-10 22:22:00,71.0,70.0,30.23,SE,127,0.0,0.0,97,0.00,,,0.16,,2013-08-11 02:22:00,
2013-08-10 22:32:00,71.0,70.0,30.23,SE,127,0.0,0.0,97,0.00,,,0.16,,2013-08-11 02:32:00,
2013-08-10 22:43:00,71.0,70.0,30.22,SE,127,0.0,0.0,97,0.00,,,0.16,,2013-08-11 02:43:00,
2013-08-10 22:56:00,71.0,70.0,30.22,SE,126,0.0,0.0,97,0.00,,,0.16,,2013-08-11 02:56:00,
2013-08-10 23:05:00,71.0,70.0,30.23,SE,127,0.0,0.0,97,0.00,,,0.16,,2013-08-11 03:05:00,
2013-08-10 23:17:00,71.0,70.0,30.22,SE,127,0.0,0.0,97,0.00,,,0.16,,2013-08-11 03:17:00,
2013-08-10 23:27:00,71.0,70.0,30.22,SE,127,0.0,0.0,97,0.00,,,0.16,,2013-08-11 03:27:00,
2013-08-10 23:35:00,71.0,70.0,30.22,SE,127,0.0,0.0,97,0.00,,,0.16,,2013-08-11 03:35:00,
2013-08-10 23:44:00,71.0,70.0,30.22,SE,126,0.0,0.0,97,0.00,,,0.16,,2013-08-11 03:44:00,
2013-08-10 23:54:00,71.0,70.0,30.22,SE,127,0.0,0.0,98,0.00,,,0.16,,2013-08-11 03:54:00,